Tiempo cada hora Cegielnia

Hoy, 17 Abril, Sábado

Tiempo Temperatura Precipitaciones Viento Presión Humedad
00:00 +3°C° 0 mm 3 mps 759 mmHg 86%
01:00 +4°C° 0 mm 3 mps 759 mmHg 86%
02:00 +4°C° 0 mm 3 mps 759 mmHg 86%
03:00 +4°C° 0 mm 3 mps 759 mmHg 87%
04:00 +5°C° 0 mm 3 mps 759 mmHg 87%
05:00 +5°C° 0 mm 3 mps 759 mmHg 87%
06:00 +5°C° 0 mm 4 mps 760 mmHg 87%
07:00 +5°C° 0 mm 4 mps 760 mmHg 88%
08:00 +6°C° 0 mm 4 mps 760 mmHg 84%
09:00 +8°C° 0 mm 4 mps 760 mmHg 80%
10:00 +10°C° 0 mm 4 mps 760 mmHg 76%
11:00 +10°C° 0 mm 4 mps 760 mmHg 77%
12:00 +10°C° 0 mm 4 mps 760 mmHg 79%
13:00 +10°C° 0 mm 4 mps 760 mmHg 77%
14:00 +10°C° 0 mm 4 mps 760 mmHg 76%
15:00 +9°C° 0 mm 5 mps 760 mmHg 75%
16:00 +10°C° 0 mm 5 mps 760 mmHg 74%
17:00 +8°C° 0 mm 4 mps 760 mmHg 79%
18:00 +7°C° 0 mm 4 mps 760 mmHg 85%
19:00 +5°C° 0 mm 3 mps 760 mmHg 91%
20:00 +5°C° 0 mm 3 mps 760 mmHg 91%
21:00 +5°C° 0 mm 3 mps 760 mmHg 91%
22:00 +5°C° 0 mm 2 mps 760 mmHg 91%
23:00 +6°C° 0 mm 2 mps 760 mmHg 90%

Mañana, 18 Abril, Domingo

Tiempo Temperatura Precipitaciones Viento Presión Humedad
00:00 +6°C° 0 mm 2 mps 760 mmHg 89%
01:00 +6°C° 0 mm 2 mps 760 mmHg 88%
02:00 +5°C° 0 mm 3 mps 760 mmHg 90%
03:00 +5°C° 0 mm 3 mps 760 mmHg 92%
04:00 +5°C° 0 mm 3 mps 760 mmHg 94%
05:00 +7°C° 0 mm 3 mps 760 mmHg 91%
06:00 +8°C° 0 mm 3 mps 760 mmHg 88%
07:00 +8°C° 0 mm 4 mps 760 mmHg 85%
08:00 +8°C° 0 mm 4 mps 760 mmHg 81%
09:00 +10°C° 0 mm 4 mps 760 mmHg 78%
10:00 +11°C° 0 mm 4 mps 760 mmHg 75%
11:00 +11°C° 0.1 mm 4 mps 760 mmHg 76%
12:00 +11°C° 0.1 mm 4 mps 760 mmHg 77%
13:00 +11°C° 0.1 mm 4 mps 760 mmHg 78%
14:00 +11°C° 0.1 mm 3 mps 760 mmHg 79%
15:00 +11°C° 0.1 mm 3 mps 760 mmHg 80%
16:00 +10°C° 0.1 mm 3 mps 760 mmHg 82%
17:00 +10°C° 0.1 mm 2 mps 760 mmHg 85%
18:00 +9°C° 0.1 mm 2 mps 760 mmHg 88%
19:00 +8°C° 0.1 mm 2 mps 761 mmHg 91%
20:00 +8°C° 0 mm 2 mps 760 mmHg 89%
21:00 +8°C° 0 mm 2 mps 760 mmHg 88%
22:00 +8°C° 0 mm 2 mps 760 mmHg 86%
23:00 +8°C° 0 mm 2 mps 760 mmHg 85%

Pasado mañana, 19 Abril, Lunes

Tiempo Temperatura Precipitaciones Viento Presión Humedad
00:00 +8°C° 0 mm 2 mps 760 mmHg 85%
01:00 +8°C° 0 mm 2 mps 760 mmHg 84%
02:00 +8°C° 0 mm 2 mps 760 mmHg 85%
03:00 +8°C° 0 mm 2 mps 760 mmHg 87%
04:00 +8°C° 0 mm 3 mps 760 mmHg 88%
05:00 +8°C° 0 mm 3 mps 760 mmHg 85%
06:00 +8°C° 0 mm 4 mps 760 mmHg 82%
07:00 +10°C° 0 mm 4 mps 760 mmHg 79%
08:00 +11°C° 0 mm 4 mps 760 mmHg 71%
09:00 +12°C° 0 mm 5 mps 760 mmHg 64%
10:00 +14°C° 0 mm 5 mps 760 mmHg 56%
11:00 +14°C° 0 mm 5 mps 760 mmHg 55%
12:00 +14°C° 0 mm 5 mps 760 mmHg 53%
13:00 +14°C° 0 mm 5 mps 760 mmHg 52%
14:00 +14°C° 0 mm 5 mps 760 mmHg 54%
15:00 +13°C° 0 mm 5 mps 760 mmHg 56%
16:00 +13°C° 0 mm 5 mps 759 mmHg 57%
17:00 +10°C° 0 mm 5 mps 759 mmHg 63%
18:00 +10°C° 0 mm 4 mps 759 mmHg 69%
19:00 +7°C° 0 mm 4 mps 759 mmHg 74%
20:00 +7°C° 0 mm 4 mps 759 mmHg 77%
21:00 +7°C° 0 mm 4 mps 759 mmHg 80%
22:00 +7°C° 0 mm 4 mps 759 mmHg 83%
23:00 +6°C° 0 mm 4 mps 759 mmHg 84%

20 Abril, Martes

Tiempo Temperatura Precipitaciones Viento Presión Humedad
00:00 +7°C° 0 mm 3 mps 759 mmHg 86%
01:00 +7°C° 0 mm 3 mps 758 mmHg 87%
02:00 +7°C° 0 mm 3 mps 758 mmHg 87%
03:00 +7°C° 0 mm 3 mps 758 mmHg 88%
04:00 +7°C° 0 mm 3 mps 758 mmHg 88%
05:00 +7°C° 0 mm 3 mps 758 mmHg 83%
06:00 +7°C° 0 mm 4 mps 758 mmHg 77%
07:00 +7°C° 0 mm 4 mps 758 mmHg 72%
08:00 +8°C° 0 mm 4 mps 758 mmHg 65%
09:00 +10°C° 0 mm 3 mps 758 mmHg 59%
10:00 +11°C° 0 mm 3 mps 757 mmHg 52%
11:00 +11°C° 0 mm 3 mps 757 mmHg 52%
12:00 +11°C° 0 mm 3 mps 757 mmHg 52%
13:00 +11°C° 0 mm 3 mps 757 mmHg 52%
14:00 +11°C° 0 mm 3 mps 756 mmHg 54%
15:00 +11°C° 0 mm 3 mps 756 mmHg 56%
16:00 +11°C° 0 mm 3 mps 756 mmHg 57%
17:00 +9°C° 0 mm 3 mps 756 mmHg 64%
18:00 +8°C° 0 mm 2 mps 756 mmHg 70%
19:00 +7°C° 0 mm 2 mps 755 mmHg 76%
20:00 +6°C° 0 mm 2 mps 755 mmHg 78%
21:00 +7°C° 0 mm 1 mps 755 mmHg 79%
22:00 +6°C° 0 mm 1 mps 755 mmHg 81%
23:00 +6°C° 0 mm 1 mps 755 mmHg 81%

21 Abril, Miércoles

Tiempo Temperatura Precipitaciones Viento Presión Humedad
00:00 +6°C° 0 mm 1 mps 754 mmHg 80%
01:00 +5°C° 0 mm 0 mps 754 mmHg 80%
02:00 +6°C° 0 mm 1 mps 754 mmHg 80%
03:00 +5°C° 0 mm 1 mps 753 mmHg 81%
04:00 +5°C° 0 mm 1 mps 753 mmHg 81%
05:00 +6°C° 0 mm 1 mps 753 mmHg 78%
06:00 +7°C° 0 mm 1 mps 753 mmHg 74%
07:00 +9°C° 0 mm 1 mps 752 mmHg 71%
08:00 +10°C° 0 mm 1 mps 752 mmHg 65%
09:00 +11°C° 0 mm 1 mps 752 mmHg 59%
10:00 +13°C° 0 mm 1 mps 752 mmHg 53%
11:00 +13°C° 0.1 mm 1 mps 751 mmHg 54%
12:00 +12°C° 0.1 mm 2 mps 751 mmHg 55%
13:00 +12°C° 0.1 mm 2 mps 751 mmHg 56%
14:00 +12°C° 0 mm 2 mps 751 mmHg 58%
15:00 +12°C° 0 mm 2 mps 751 mmHg 59%
16:00 +11°C° 0 mm 1 mps 751 mmHg 61%
17:00 +9°C° 0 mm 2 mps 751 mmHg 66%
18:00 +8°C° 0 mm 2 mps 751 mmHg 71%
19:00 +7°C° 0 mm 3 mps 751 mmHg 76%
20:00 +5°C° 0 mm 3 mps 751 mmHg 81%
21:00 +4°C° 0 mm 4 mps 751 mmHg 87%
22:00 +3°C° 0 mm 5 mps 752 mmHg 92%
23:00 +4°C° 0.1 mm 4 mps 752 mmHg 91%

22 Abril, Jueves

Tiempo Temperatura Precipitaciones Viento Presión Humedad
00:00 +3°C° 0.1 mm 4 mps 752 mmHg 90%
01:00 +3°C° 0.1 mm 4 mps 752 mmHg 89%
02:00 +3°C° 0 mm 4 mps 753 mmHg 91%
03:00 +1°C° 0 mm 4 mps 753 mmHg 93%
04:00 0°C° 0 mm 4 mps 753 mmHg 94%
05:00 +1°C° 0 mm 4 mps 754 mmHg 90%
06:00 +2°C° 0 mm 5 mps 754 mmHg 85%
07:00 +2°C° 0 mm 5 mps 755 mmHg 81%
08:00 +3°C° 0.1 mm 5 mps 755 mmHg 74%
09:00 +5°C° 0.1 mm 5 mps 756 mmHg 66%
10:00 +6°C° 0.1 mm 5 mps 756 mmHg 59%
11:00 +7°C° 0.1 mm 5 mps 757 mmHg 56%
12:00 +7°C° 0.1 mm 4 mps 757 mmHg 54%
13:00 +7°C° 0.1 mm 4 mps 757 mmHg 51%
14:00 +7°C° 0.1 mm 4 mps 758 mmHg 54%
15:00 +6°C° 0.1 mm 4 mps 758 mmHg 57%
16:00 +7°C° 0.1 mm 3 mps 759 mmHg 60%
17:00 +5°C° 0 mm 3 mps 759 mmHg 66%
18:00 +5°C° 0 mm 2 mps 760 mmHg 72%
19:00 +4°C° 0 mm 2 mps 760 mmHg 78%
20:00 +5°C° 0 mm 1 mps 761 mmHg 81%
21:00 +4°C° 0 mm 1 mps 761 mmHg 84%
22:00 +4°C° 0 mm 1 mps 761 mmHg 86%
23:00 +4°C° 0 mm 1 mps 761 mmHg 87%
Mostrar más

Necesitamos Su Consentimiento

Meteoprog y nuestros Proveedores de Servicios pueden almacenar y acceder a sus datos personales como cookies, identificadores de dispositivo u otras tecnologías similares de su dispositivo y procesar dichos datos para personalizar contenido y anuncios, además de ofrecer funciones de redes sociales y analizar el tráfico.

  • Almacenar y/o acceder a información en su dispositivo

    Se puede almacenar o acceder a cookies, identificadores de dispositivo u otra información de su dispositivo para los fines anteriormente indicados.

  • Anuncios y contenido personalizados, medición de anuncios y contenido, percepciones del público, y desarrollo de productos

    Los anuncios y el contenido pueden personalizarse en base a su perfil. Se pueden añadir más datos para personalizar mejor los anuncios y contenidos. Se puede medir el rendimiento de los anuncios y contenidos. Se puede obtener la percepción sobre el público que ha visto los anuncios y contenidos. Dichos datos pueden usarse para desarrollar o mejorar la experiencia del usuario, sistemas y software.

Al hacer clic en ‘Estoy De Acuerdo’ usted permitirá el uso de las cookies, identificadores de dispositivo, balizas web u otras tecnologías similares indicadas. Su configuración puede cambiarse desde el navegador de su dispositivo.

Para ciertos fines, los intereses legítimos pueden ser considerados por encima del consentimiento. Puede leer más sobre ello en nuestra Política de Privacidad y Cookies.